20041012,40
20041110,40
20041210,40
20050111,45
20050210,45
20050310,45
20050411,45
20050510,45
20050610,45
20050711,60
20050810,60
20050912,60
20051011,60
20051110,60
20051212,60
20060110,80
20060210,80
20060310,80
20060410,90
20060510,90
20060612,90
20060710,90
20060810,90
20060911,90
20061010,90
20061110,90
20061211,90
20070110,90
20070213,100
20070312,100
20070410,100
20070510,100
20070611,100
20070710,100
20070810,100
20070910,100
20071010,100
20071112,100
20071210,100
20080110,100
20080212,100
20080310,100
20080410,100
20080512,100
20080610,100
20080710,100
20080811,100
20080910,100
20081010,100
20081110,100
20081210,75
20090113,75
20090210,75
20090310,75
20090410,75
20090511,75
20090610,75
20090710,75
20090810,75
20090910,75
20091013,75
20091110,75
20091210,75
20100112,75
20100210,75
20100310,75
20100412,75
20100510,75
20100610,75
20100712,75
20100810,75
20100910,75
20101012,75
20101110,75
20101210,75
20110111,75
20110210,75
20110310,75
20110411,75
20110510,75
20110610,75
20110711,75
20110810,75
20110912,75
20111011,75
20111110,75
20111212,75
20120110,75
20120210,65
20120312,65
20120410,65
20120510,65
20120611,65
20120710,65
20120810,55
20120910,55
20121010,55
20121112,55
20121210,55
20130110,55
20130212,55
20130311,65
20130410,65
20130510,65
20130610,65
20130710,65
20130812,65
20130910,65
20131010,65
20131111,65
20131210,65
20140110,65
20140210,65
20140310,65
20140410,65
20140512,65
20140610,65
20140710,65
20140811,65
20140910,65
20141010,65
20141110,65
20141210,70
20150113,70
20150210,70
20150310,70
20150410,70
20150511,70
20150610,70
20150710,70
20150810,70
20150910,70
20151013,70
20151110,70
20151210,70
20160112,70
20160210,70
20160310,70
20160411,70
20160510,70
20160610,70
20160711,70
20160810,70
20160912,70
20161011,70
20161110,70
20161212,70
20170110,70
20170210,50
20170310,50
20170410,50
20170510,50
20170612,50
20170710,50
20170810,50
20170911,50
20171010,50
20171110,50
20171211,50
20180110,50
20180213,35
20180312,35
20180410,35
20180510,35
20180611,35
20180710,35
20180810,35
20180910,35
20181010,35
20181112,35
20181210,35
20190110,35
20190212,20
20190311,20
20190410,20
20190510,20
20190610,20
20190710,20
20190813,20
20190910,20
20191010,20
20191111,20
20191210,20
20200110,20
20200210,10
20200310,10
20200410,10
20200511,10
20200610,10
20200710,10
20200811,10
20200910,10
20201012,10
20201110,10
20201210,10
20210112,10
20210210,10
20210310,10
20210412,10
20210510,10
20210610,10
20210712,10
20210810,10
20210910,10
20211011,10
20211110,10
20211210,10
20220111,10
20220210,10
20220310,10
20220411,10
20220510,10
20220610,10
20220711,10
20220810,10
20220912,10
20221011,10
20221110,10
20221212,10
20230110,10
20230210,10
20230310,10
20230410,10
20230510,10
20230612,10
20230710,10
20230810,10
20230911,10
20231010,10
20231110,10
20231211,10
20240110,10
20240213,10
20240311,10
20240410,10
20240510,10
